星链-37286(STARLINK-37286)

导读

STARLINK-37286(NORAD编号68512)是SpaceX星链星座中的一颗第二代互联网通信卫星,隶属于星链低轨卫星互联网项目。星链旨在为全球偏远地区、海洋、航空等场景提供低延迟宽带网络覆盖,该卫星运行在近地轨道,承担通信转发功能。它由SpaceX猎鹰9号火箭发射入轨,是星链不断扩张星座规模中的一员,助力SpaceX完成全球数万颗低轨卫星的组网部署,目前在轨道正常运行,为用户提供卫星互联网接入服务。

基本信息
目录编号:
68512
目录名称:
STARLINK-37286
国际标识:
2026-068E
轨道中心:
EARTH
卫星名称:
星链-37286
卫星全名:
星链-37286(STARLINK-37286)
卫星状态:
在轨 (已飞行167 天)
发射日期:
2026-03-30 UTC
国别 :
美国 (US)
星等 :
--
该卫星已列入 空间交会检测服务 Space Conjunction Data Service (SCDS) ,当前飞行风险评估等级: 无高风险
轨道信息
数据来源 国际轨道数据 AOE轨道数据
星历时间 2026-09-12T23:01:07+0800
19小时前
查看轨道信息
2026-09-10T08:00:00+0800
3天前
查看轨道信息
半长轴 6840.833km 6840.936km
偏心率 0.0001216 0.000143
轨道倾角 53.160° 53.160°
近地点辐角 74.251° 54.919°
升交点赤经 330.350° 342.626°
平近点角 285.862° 192.766°
近地点 461.864km 461.82km
远地点 463.528km 463.778km
周期 93.848分钟 93.850分钟
每日圈数 15.344026 15.343679
详细信息
固有亮度:
5
最大亮度:
2.5
卫星平台:
Starlink V1.0
覆盖范围:
全球
运营商:
太空探索技术公司
运营商所在国:
美国
制造商(研发单位):
太空探索技术公司
制造商所在国:
美国
使用方式:
暂无
卫星简介
Starlink 计划是 SpaceX 推出的全球卫星互联网项目,通过发射低轨道卫星,为全球尤其是偏远地区提供高速、低延迟的互联网服务。自 2019 年起,Starlink 已部署数千颗卫星,旨在缩小全球数字鸿沟,推动互联网普及。该项目还为军事、航空等行业提供通信支持,带来广泛经济效益。
2D轨道图
3D轨道图
轨道高度分析图
轨道倾角分析图
轨道综合分析图
查看轨道综合分析图
交会数据列表
事件ID 空间交会对象 最接近时刻(TCA) 交会距离 交会风险概率(CRP) 交会风险指数(CRI) 操作
CDM_260913-072105-379906-851221
2026-09-13T
07:21:42+0000
2.700 km
极远距离
1.37058E-6 低风险 0.38
CDM_260912-035106-178106-851222
2026-09-12T
03:51:36+0000
2.979 km
极远距离
1.326154E-6 低风险 0.37
CDM_260913-124204-945806-851221
2026-09-13T
12:42:31+0000
2.669 km
极远距离
1.286782E-6 低风险 0.37
CDM_260913-102104-945806-851221
2026-09-13T
10:21:47+0000
2.853 km
极远距离
1.17197E-6 低风险 0.36
CDM_260914-115205-284406-851221
2026-09-14T
11:52:03+0000
2.638 km
极远距离
1.011999E-6 低风险 0.35
CDM_260913-083805-254806-851221
2026-09-13T
08:38:28+0000
2.664 km
极远距离
6.479735E-7 极低风险 0.31
CDM_260923-035605-343006-851221
2026-09-23T
03:56:45+0000
2.524 km
极远距离
2.639366E-7 极低风险 0.23
与全量物体交会距离演化趋势
与全量物体交会风险概率演化趋势